CST,Max TemperatureF,Mean TemperatureF,Min TemperatureF,Max Dew PointF,MeanDew PointF,Min DewpointF,Max Humidity, Mean Humidity, Min Humidity, Max Sea Level PressureIn, Mean Sea Level PressureIn, Min Sea Level PressureIn, Max VisibilityMiles, Mean VisibilityMiles, Min VisibilityMiles, Max Wind SpeedMPH, Mean Wind SpeedMPH, Max Gust SpeedMPH,PrecipitationIn, CloudCover, Events, WindDirDegrees
2012-12-1,65,54,42,57,49,38,100,70,39,29.93,29.84,29.77,10,8,3,23,12,31,0.00,6,,214
2012-12-2,69,52,35,54,42,35,100,72,44,30.05,29.95,29.77,10,6,0,15,5,18,0.00,5,Fog,181
2012-12-3,72,63,53,57,48,32,90,59,28,30.10,29.82,29.66,10,9,6,28,17,35,0.00,5,,230
2012-12-4,63,49,35,36,26,19,70,45,19,30.33,30.28,30.10,10,10,10,12,5,14,0.00,3,,332
2012-12-5,61,45,28,30,24,16,78,48,17,30.33,30.18,29.97,10,10,10,21,9,26,0.00,5,,164
2012-12-6,54,48,42,46,41,29,92,73,53,29.95,29.88,29.84,10,9,6,15,9,18,0.00,7,,135
2012-12-7,52,45,37,42,37,33,85,73,61,29.98,29.90,29.84,10,9,7,14,8,18,0.00,6,,9
2012-12-8,46,36,25,43,37,28,96,83,70,29.99,29.91,29.82,10,6,4,12,6,16,0.00,6,,84
2012-12-9,46,34,22,43,26,7,92,65,38,30.22,29.99,29.83,10,7,3,32,17,41,0.00,7,,340
2012-12-10,34,23,12,9,3,0,67,46,24,30.23,30.14,30.02,10,10,10,28,11,32,0.00,2,,289
2012-12-11,48,31,14,15,10,4,67,47,26,30.16,30.12,30.06,10,10,10,10,5,12,0.00,1,,189
2012-12-12,53,37,21,18,15,13,68,44,20,30.20,30.13,30.06,10,10,10,30,15,36,0.00,1,,179
2012-12-13,60,47,33,27,23,17,61,43,25,30.12,30.07,30.02,10,10,10,22,13,28,0.00,2,,176
2012-12-14,56,47,38,47,36,25,93,69,44,30.06,29.84,29.52,10,9,2,30,16,39,0.15,6,Rain-Thunderstorm,159
2012-12-15,61,49,36,45,41,34,93,71,49,29.73,29.64,29.46,10,10,9,31,12,40,0.00,3,,248
2012-12-16,48,41,33,36,34,30,96,78,60,29.83,29.75,29.68,10,6,4,17,8,21,0.00,5,,17
2012-12-17,57,41,24,33,28,21,100,63,26,29.85,29.78,29.68,10,6,1,16,8,22,0.00,3,,250
2012-12-18,61,44,26,33,23,13,92,54,15,29.86,29.76,29.66,10,10,7,20,7,25,0.00,2,,63
2012-12-19,54,43,32,48,37,27,92,73,53,29.80,29.59,29.44,10,8,2,39,13,51,0.01,8,Rain-Snow,67
2012-12-20,38,30,21,30,21,15,92,68,44,30.35,30.12,29.65,10,7,1,38,20,53,0.02,3,Snow,314
2012-12-21,53,34,15,22,18,14,88,56,24,30.37,30.29,30.19,10,10,10,14,6,29,0.00,2,,123
2012-12-22,60,42,24,27,18,14,69,44,18,30.16,30.03,29.94,10,10,10,16,9,22,0.00,3,,189
2012-12-23,35,29,22,27,22,18,92,81,69,30.04,29.98,29.92,10,5,2,20,11,25,0.00,6,,359
2012-12-24,31,25,19,18,14,13,84,69,53,30.14,30.09,30.01,10,9,6,25,14,33,0.00,5,,19
2012-12-25,25,20,14,14,10,5,77,64,51,30.33,30.21,30.10,10,10,9,30,21,41,0.00,7,,21
2012-12-26,30,20,9,13,8,5,83,61,39,30.34,30.24,30.12,10,10,10,21,9,29,0.00,5,,41
2012-12-27,35,28,20,23,20,13,84,70,56,30.11,29.97,29.87,10,10,9,22,10,29,0.00,7,,138
2012-12-28,32,24,16,22,14,9,75,57,39,30.22,30.08,29.99,10,9,7,28,15,33,0.00,5,,332
2012-12-29,45,26,7,18,12,4,84,58,31,30.40,30.33,30.22,10,10,10,13,6,16,0.00,0,,263
2012-12-30,49,33,17,22,18,13,84,57,29,30.34,30.24,30.15,10,10,10,30,14,38,0.00,7,,179
2012-12-31,35,30,25,34,30,20,100,76,51,30.17,30.06,29.95,10,4,0,17,8,21,0.16,8,Fog-Rain-Snow,99